TimeAKDT,TemperatureF,Dew PointF,Humidity,Sea Level PressureIn,VisibilityMPH,Wind Direction,Wind SpeedMPH,Gust SpeedMPH,PrecipitationIn,Events,Conditions,WindDirDegrees,DateUTC
12:53 AM,30.9,21.9,69,29.69,10.0,North,8.1,-,N/A,,Scattered Clouds,360,2014-04-17 08:53:00
1:53 AM,30.0,21.0,69,29.69,10.0,North,9.2,-,N/A,,Scattered Clouds,350,2014-04-17 09:53:00
2:53 AM,30.0,21.0,69,29.69,10.0,North,9.2,-,N/A,,Scattered Clouds,350,2014-04-17 10:53:00
3:53 AM,30.0,21.0,69,29.68,10.0,NNW,10.4,-,N/A,,Clear,340,2014-04-17 11:53:00
4:53 AM,28.0,21.0,75,29.67,10.0,North,5.8,-,N/A,,Clear,10,2014-04-17 12:53:00
5:53 AM,27.0,21.0,78,29.66,10.0,Calm,Calm,-,N/A,,Clear,0,2014-04-17 13:53:00
6:53 AM,26.1,21.9,84,29.65,10.0,Calm,Calm,-,N/A,,Partly Cloudy,0,2014-04-17 14:53:00
7:53 AM,24.1,21.0,88,29.64,10.0,Calm,Calm,-,N/A,,Partly Cloudy,0,2014-04-17 15:53:00
8:53 AM,26.6,21.2,80,29.62,10.0,Calm,Calm,-,N/A,,Partly Cloudy,0,2014-04-17 16:53:00
9:53 AM,28.0,23.0,81,29.62,10.0,Calm,Calm,-,N/A,,Partly Cloudy,0,2014-04-17 17:53:00
10:53 AM,30.9,24.1,76,29.60,10.0,Calm,Calm,-,N/A,,Scattered Clouds,0,2014-04-17 18:53:00
11:53 AM,30.0,25.0,82,29.59,10.0,SE,3.5,-,N/A,,Scattered Clouds,130,2014-04-17 19:53:00
12:53 PM,37.0,24.1,59,29.58,10.0,NNW,4.6,-,N/A,,Scattered Clouds,340,2014-04-17 20:53:00
1:53 PM,34.0,28.9,82,29.57,10.0,SSE,5.8,-,N/A,,Scattered Clouds,150,2014-04-17 21:53:00
2:53 PM,30.9,27.0,85,29.55,10.0,SSW,4.6,-,N/A,,Scattered Clouds,210,2014-04-17 22:53:00
3:53 PM,33.1,27.0,78,29.55,10.0,SW,3.5,-,N/A,,Scattered Clouds,220,2014-04-17 23:53:00
4:53 PM,35.1,23.0,61,29.52,10.0,WSW,6.9,-,N/A,,Scattered Clouds,240,2014-04-18 00:53:00
5:53 PM,32.0,27.0,82,29.51,10.0,South,3.5,-,N/A,,Scattered Clouds,190,2014-04-18 01:53:00
6:53 PM,32.0,26.1,79,29.51,10.0,SW,3.5,-,N/A,,Mostly Cloudy,220,2014-04-18 02:53:00
7:53 PM,34.0,24.1,67,29.48,10.0,West,3.5,-,N/A,,Mostly Cloudy,280,2014-04-18 03:53:00
8:53 PM,33.1,25.0,72,29.47,10.0,WNW,5.8,-,N/A,,Mostly Cloudy,290,2014-04-18 04:53:00
9:53 PM,32.0,27.0,82,29.47,10.0,Calm,Calm,-,N/A,,Mostly Cloudy,0,2014-04-18 05:53:00
10:53 PM,30.0,27.0,88,29.46,10.0,Calm,Calm,-,N/A,,Scattered Clouds,0,2014-04-18 06:53:00
11:53 PM,30.9,24.1,76,29.46,10.0,North,8.1,-,N/A,,Scattered Clouds,350,2014-04-18 07:53:00